Comparison billing benefits electrical Power


Consumption KWH τετραμήνου day: + night:  
CompanyProduct/kWh 1 /kWh 2 Fixed charge/kWh N Fixed charge N Cost With discount Other parametersUpdated on
elin electricon Home Night 0,08500 0,08500 0 0,06610 0 66,1159,50 Without Ρήτρα ΟΤΣ. Possibility discount συνέπειας 10,00% 22/9/2019
ΗΡΩΝ Home 1Ν 0,08500 0,09200 0 0,06610 0 66,1165,45 Possibility discount συνέπειας 1,00% 22/9/2019
ΕΛΤΑ Home () 0,08400 0,08400 €1 0,06610 0 66,4159,77 Possibility discount συνέπειας 10,00% 22/9/2019
elin electricon Home 0,08500 0,08500 0 0 0 68,0061,20 Without Ρήτρα ΟΤΣ. Possibility discount συνέπειας 10,00% 22/9/2019
ΗΡΩΝ Home 1 0,08500 0,09200 0 0 0 68,0067,32 Possibility discount συνέπειας 1,00% 22/9/2019
ΕΛΤΑ ΕΛΤΑ Home 2 () 0,08400 0,08400 €1 0 0 68,2061,38 Possibility discount συνέπειας 10,00% 22/9/2019
Elpedison ElectricityHome Simple 0,08590 0,08590 0 0,08590 0 68,7258,41 Possibility discount συνέπειας 15,00% 22/9/2019
Elpedison ElectricityHome Night 0,08950 0,08950 0 0,06610 0 69,2658,87 Possibility discount συνέπειας 15,00% 22/9/2019
Volterra Home V1 Night 0,08990 0,08990 0 0,06610 0 69,5462,59 Possibility discount συνέπειας 10,00% 22/9/2019
WATT + VOLT Home Energy Night 0,08500 0,09200 €3,52 0,06610 0 69,63 22/9/2019
ΕΛΤΑ Home () 0,08600 0,08600 €1 0 0 69,8062,82 Possibility discount συνέπειας 10,00% 22/9/2019
ΗΡΩΝ Night Debit 24/7 0,06590 0,06590 €18 0,06590 0 70,7270,01 Possibility discount συνέπειας 1,00% 22/9/2019
elin electricon Night 365 0,06590 0,06590 €18 0 0 70,72 Without Ρήτρα ΟΤΣ 22/9/2019
Natural Gas Current Home 24/7 Night 0,06590 0,06590 €18 0,06590 0 70,72 22/9/2019
WATT + VOLT Liberty 0,06400 0,06400 €19,67 0,06400 0 70,87 The fixed charge is calculated from the annual subscription of 59,00 euro. Is valid up to 31/10/2019 22/9/2019
Green Green Home Plus (Γ1Ν) 0,09250 0,09250 0 0,06610 0 71,36 22/9/2019
Elpedison ElectricityHome Day 0,08950 0,08950 0 0,08950 0 71,6060,86 Possibility discount συνέπειας 15,00% 22/9/2019
Volterra Home V1 0,08990 0,08990 0 0 0 71,9264,73 Possibility discount συνέπειας 10,00% 22/9/2019
Green Green Home (Γ1) 0,09000 0,09000 0 0 0 72,00 22/9/2019
nrg Basic N 0,08950 0,08950 €3,52 0,06610 0 72,7861,86 Δεν χρεώνουν Ρήτρα ΟΤΣ. Δυνατότητα έκπτωσης συνέπειας 15% 22/9/2019
Volton Volton at Home Night 0,08987 0,08987 €1,44 0,06610 €1,92 72,8861,95 Possibility discount συνέπειας 15,00% 22/9/2019
nrg Basic 0,08950 0,08950 €1,52 0 0 73,1262,15 Δεν χρεώνουν Ρήτρα ΟΤΣ. Δυνατότητα έκπτωσης συνέπειας 15% 22/9/2019
ZeniΘ Power Home Night 0,08990 0,08990 0 0,06610 €4 73,5462,51 Δεν χρεώνουν Ρήτρα ΟΤΣ. Δυνατότητα έκπτωσης συνέπειας 15,00% 22/9/2019
Natural Gas Current Home Night 0,09227 0,09227 €1,52 0,06610 €2 74,7263,51 Possibility discount συνέπειας 15,00% 22/9/2019
Natural Gas Current Home 0,09227 0,09227 €1,52 0,09227 0 75,3464,04 Possibility discount συνέπειας 15,00% 22/9/2019
ZeniΘ Power Home 0,08990 0,08990 €4 0,08990 0 75,9264,53 Δεν χρεώνουν Ρήτρα ΟΤΣ. Δυνατότητα έκπτωσης συνέπειας 15,00% 22/9/2019
Protergia Protergia Home N 0,11028 0,11274 €3,91 0,07897 0 89,00 22/9/2019
PPC Οικιακό Νυχτερινό Τιμολόγιο - Γ1Ν 0,11058 0,11936 €1,69 0,07897 €2,22 89,2184,75 Δεν υπάρχει Ρήτρα ΟΤΣ. Δυνατότητα έκπτωσης συνέπειας 5,00% 22/9/2019
Protergia Protergia Home 0,11028 0,11274 €1,69 0 0 89,91 22/9/2019
PPC Οικιακό Τιμολόγιο - Γ1 0,11058 0,11936 €1,69 0 0 90,1585,65 Δεν υπάρχει Ρήτρα ΟΤΣ. Δυνατότητα έκπτωσης συνέπειας 5,00% 22/9/2019

€/kWh 1: Η χρέωση της kWh μέχρι 2000 kWh ανά τετράμηνο.

€/kWh 2: Η χρέωση της kWh άνω των 2000 kWh.

€/kWh Ν: Η χρέωση της kWh στο νυχτερινό τιμολόγιο

Πάγιο: Πάγια χρέωση τετραμήνου

Πάγιο Ν: Επιπλέον πάγια χρέωση για το νυχτερινό

Κόστος: Το συνολικό κόστος χρεώσεων τετραμήνου με βάση την κατανάλωση kWh μέρας και νύχτας. Αν το πρόγραμμα δεν προσφέρει τιμολόγιο νύχτας, η κατανάλωση της νύχτας προστίθεται στην ημερήσια.